Tracking 28902 objects as of 19-May-2024
HD Live streaming from Space Station
objects crossing your sky now

STARLINK-6058

Track STARLINK-6058 now!
10-day predictions
STARLINK-6058 is classified as:


NORAD ID: 56797
Int'l Code: 2023-078AG
Perigee: 577.5 km
Apogee: 581.0 km
Inclination: 70.0 °
Period: 96.1 minutes
Semi major axis: 6950 km
RCS: Unknown
Launch date: May 31, 2023
Source: United States (US)
Launch site: AIR FORCE WESTERN TEST RANGE (AFWTR)
Your satellite tracking list
Your tracking list is empty




NASA's NSSDC Master Catalog

Two Line Element Set (TLE):
1 56797U 23078AG  24140.53303500 -.00001791  00000-0 -14244-3 0  9992
2 56797  70.0006 206.4708 0002534 272.0702  88.0167 14.98316494 53940
Source of the keplerian elements: AFSPC